Theta_e
319 319 317 317 317 317 317 318 319 322 321 320 318 318 317 322 323 325 322 322 322 322 322 320 323 320 316 314 315 313 311 312 318 311 312 314 315 317 317 316 317 317 321
316 317 318 318 320 320 320 320 319 320 320 319 319 320 319 320 321 322 322 322 320 320 320 322 323 325 323 320 315 315 310 312 313 310 310 306 309 313 316 316 314 315 320
316 317 315 317 317 318 318 320 320 320 320 319 318 317 318 317 316 315 316 317 318 318 320 321 321 322 325 320 318 314 314 311 315 315 311 306 303 308 313 313 314 314 317
317 316 316 315 316 317 319 320 320 320 317 317 315 315 312 310 312 313 315 316 318 318 318 319 320 321 324 321 320 317 317 316 312 315 314 315 312 306 304 311 314 312 315
312 312 313 314 317 317 318 320 319 318 316 316 315 313 313 312 313 312 313 315 317 318 317 318 318 318 318 320 317 315 318 316 314 313 313 313 312 313 307 303 308 311 313
311 311 313 315 315 317 317 317 314 315 316 314 315 314 313 312 310 311 310 311 314 314 317 316 317 318 318 319 319 319 317 315 315 315 315 314 311 309 309 306 307 305 309
309 311 312 313 314 313 313 311 311 311 313 313 313 313 313 313 311 311 309 310 311 313 315 316 317 316 317 317 318 318 313 312 314 315 313 310 311 311 311 308 306 305 307
308 310 312 311 309 308 308 310 310 311 312 312 311 312 313 310 310 311 311 310 311 313 316 317 317 317 316 317 317 316 314 316 316 312 311 309 311 314 312 311 306 302 304
307 309 307 305 308 306 306 309 309 310 311 309 309 311 312 312 311 312 313 312 313 313 315 315 316 317 316 316 316 315 314 312 314 312 309 310 313 312 312 311 307 304 301
307 308 307 304 307 305 309 311 310 310 309 310 310 310 311 311 311 311 311 312 313 314 314 314 315 315 314 314 314 311 309 309 310 311 310 312 309 313 314 312 308 308 306
305 304 303 307 304 308 308 309 310 310 310 310 310 309 308 307 308 310 310 311 312 313 312 312 310 311 311 310 305 307 306 306 307 308 309 312 314 314 314 310 310 308 307
304 303 303 304 306 306 307 308 306 307 309 309 307 307 305 306 307 307 306 308 310 309 307 307 306 305 305 306 306 304 303 303 305 311 313 311 312 313 314 312 310 308 309
301 303 303 304 305 306 307 305 305 305 306 306 304 304 305 305 305 304 305 304 305 306 306 306 304 303 304 304 305 304 304 303 306 310 311 310 311 310 310 310 309 306 305
302 302 303 305 306 306 305 305 306 306 306 304 303 304 304 304 304 304 304 305 303 302 305 304 304 306 307 307 308 308 308 307 306 309 311 311 311 310 311 310 310 306 305
300 302 303 305 305 304 305 306 307 306 304 303 304 304 303 304 303 304 302 303 305 303 304 304 306 307 307 304 305 305 307 307 309 311 311 312 309 308 309 310 308 307 305
301 303 303 303 302 303 303 303 303 303 304 304 303 303 304 303 303 302 304 303 302 303 304 304 304 304 303 302 303 306 308 308 308 308 309 310 308 309 307 308 309 308 306
302 302 302 302 301 301 303 302 303 305 305 305 304 304 304 302 302 304 305 304 303 306 304 303 303 304 305 300 301 303 307 306 305 305 307 306 306 306 307 306 306 306 306
301 301 302 301 302 302 302 304 305 305 305 304 303 304 305 302 302 303 303 304 304 303 304 304 306 305 303 301 300 302 305 304 304 303 304 304 306 306 306 305 305 308 309
301 302 301 302 302 303 303 304 304 303 303 302 303 304 305 302 304 301 301 302 303 303 303 303 303 302 303 299 299 303 303 304 302 303 304 306 305 300 301 310 308 309 309
302 302 302 303 304 304 306 303 302 302 301 302 303 304 304 305 304 303 302 303 304 304 304 304 305 304 304 298 298 302 305 304 303 305 304 300 304 297 298 310 309 307 307
302 303 303 302 305 306 303 302 302 302 304 305 304 305 305 304 304 304 302 304 306 306 305 305 306 305 302 303 297 298 308 307 307 304 309 309 297 296 296 299 310 306 307
302 304 303 303 304 304 303 302 302 305 305 306 305 306 306 305 304 304 305 308 308 308 306 306 305 306 307 300 298 297 298 303 308 307 309 307 296 296 296 301 296 297 299
303 304 302 304 305 305 304 302 303 305 305 306 306 306 306 305 305 307 308 309 308 306 306 307 308 309 310 312 301 299 298 300 310 310 303 298 297 297 301 297 297 296 313
302 304 303 304 305 305 305 304 305 306 305 307 308 306 307 307 306 309 306 307 309 308 306 306 305 306 308 307 310 310 312 305 310 308 311 304 302 299 304 310 310 314 314
304 303 303 305 305 306 305 307 308 307 308 308 309 310 310 311 309 310 308 310 311 304 303 303 306 304 304 300 295 299 307 310 303 307 310 308 308 308 309 309 310 310 310
303 302 304 306 305 307 306 306 310 310 310 309 308 306 307 311 312 312 312 296 295 295 292 291 297 304 293 292 292 292 291 292 293 306 305 305 305 305 305 306 307 308 307
Wind_Speed
9 10 10 10 8 7 6 7 9 10 9 7 7 6 6 3 3 3 3 4 5 5 5 4 3 4 5 6 4 4 3 5 2 3 4 3 5 2 2 3 3 4 3
8 8 10 11 11 11 10 11 9 9 9 7 6 4 6 4 6 5 7 6 9 8 7 6 6 7 6 6 5 6 1 3 1 3 3 3 4 4 1 2 4 5 3
5 8 10 9 8 9 9 10 10 10 8 8 5 5 4 5 4 7 7 8 8 8 7 7 7 7 4 5 4 6 6 5 4 4 4 3 2 3 3 2 3 6 4
5 7 7 7 7 7 7 7 7 7 7 8 7 9 7 7 7 7 7 8 7 7 7 7 8 8 3 4 6 5 5 5 5 3 4 2 3 3 3 3 1 5 4
5 6 5 6 7 7 8 6 7 7 7 7 7 6 8 6 6 7 10 8 7 7 8 8 8 8 5 3 3 6 6 4 5 4 3 3 3 2 4 6 3 3 3
6 5 5 6 7 7 7 6 8 8 8 8 8 8 8 9 9 10 8 8 7 7 7 8 7 7 7 6 5 5 4 4 4 5 5 4 2 2 2 4 5 6 5
4 4 6 6 6 7 7 7 7 8 9 9 10 10 9 9 10 10 9 11 8 7 8 8 7 6 6 7 6 5 3 4 3 5 4 3 3 4 5 4 5 6 6
3 5 5 6 4 4 6 7 8 10 10 10 11 9 8 7 8 9 9 8 7 8 9 8 8 5 6 5 6 4 4 5 1 3 3 2 2 5 5 3 3 7 6
5 5 3 3 6 6 6 8 9 11 10 9 9 10 8 9 9 10 9 7 7 6 8 7 8 6 6 7 7 6 5 1 3 5 4 2 3 5 4 2 1 4 8
2 1 2 2 3 4 7 7 8 9 9 9 8 8 8 8 8 8 9 9 8 9 10 9 8 7 8 9 10 8 6 6 2 2 2 3 4 5 2 2 3 5 6
5 4 5 7 5 6 7 8 9 10 10 10 9 9 9 9 8 7 8 9 9 7 8 8 8 8 8 8 6 6 5 5 4 1 5 6 5 3 2 3 3 5 5
5 5 4 6 7 8 9 10 9 10 10 9 8 9 6 6 8 8 8 9 7 7 7 7 8 7 7 7 6 5 4 4 4 4 3 3 0 0 1 2 5 5 5
4 5 7 8 8 9 10 9 8 9 8 7 8 8 10 10 11 10 7 6 8 8 7 7 6 5 4 5 4 5 4 4 5 6 4 4 3 3 3 4 4 4 4
7 8 9 9 9 10 9 9 9 7 7 7 7 8 10 10 9 8 8 7 4 6 6 6 5 6 8 7 8 7 6 5 3 3 3 2 3 5 5 5 6 3 4
8 9 10 10 11 11 11 11 8 8 6 6 8 10 8 8 7 9 8 8 6 3 6 7 6 7 7 7 7 5 5 3 1 1 2 3 6 7 7 6 4 4 1
8 9 10 11 10 11 10 10 9 7 8 9 11 8 9 8 9 6 8 7 7 8 7 7 7 6 5 10 8 7 5 5 5 4 4 3 4 4 5 6 5 5 2
8 8 8 9 8 8 8 7 7 7 8 9 10 10 10 9 9 9 7 7 7 6 7 7 6 7 7 10 8 7 5 5 4 4 4 4 4 3 2 5 6 7 7
7 7 8 7 8 8 7 6 7 8 9 10 10 10 9 7 8 9 9 9 7 7 6 7 8 7 7 8 6 4 4 4 5 4 3 3 4 5 3 3 3 4 4
4 5 5 5 6 7 6 7 8 8 9 10 10 10 10 8 10 9 8 6 6 5 5 3 4 4 5 9 7 4 3 5 5 5 7 5 4 6 6 5 5 5 5
4 5 5 5 6 7 7 7 8 9 9 9 9 8 8 9 9 7 7 6 5 5 4 6 6 7 6 10 8 4 3 4 4 6 5 8 7 6 7 5 5 6 5
4 4 5 6 7 7 5 6 7 9 8 7 6 7 8 7 7 7 5 5 6 6 7 7 7 7 6 7 8 7 7 5 6 3 4 4 5 4 3 4 4 4 6
3 5 5 5 6 5 4 6 8 8 7 7 5 6 7 6 6 7 6 7 7 8 5 3 4 3 4 6 7 7 7 4 6 5 4 4 4 3 4 5 1 4 8
4 4 4 4 5 6 5 6 8 8 7 6 7 7 7 7 8 8 7 6 6 6 6 6 7 7 7 6 7 5 4 5 4 4 5 6 7 9 8 4 6 8 4
3 4 3 5 6 6 6 5 7 7 6 8 9 7 7 6 6 5 4 6 8 7 7 7 7 6 6 6 7 5 6 5 4 2 4 2 1 2 3 4 2 4 5
4 3 3 4 5 6 6 7 8 6 8 8 7 8 7 7 7 5 4 6 6 7 7 6 6 7 8 9 8 5 6 5 7 4 5 7 6 6 6 6 7 7 7
4 2 3 4 5 5 6 7 7 7 7 7 6 5 3 5 4 5 6 4 5 7 7 7 4 6 6 8 9 13 12 10 10 4 8 7 8 8 8 8 8 8 8
Wind_Direction
63 62 62 65 66 59 56 45 55 35 23 16 14 13 10 351 337 291 280 287 321 337 337 320 261 222 195 185 186 262 249 262 259 310 273 188 184 119 43 32 9 348 335
46 47 53 47 37 36 34 33 28 18 17 9 355 336 329 325 342 346 344 346 337 326 318 310 287 260 240 211 197 229 258 270 243 294 300 265 184 213 224 349 20 1 332
63 44 38 33 25 25 17 9 7 2 7 1 356 354 351 342 341 350 337 340 323 323 328 319 311 312 281 232 201 229 218 262 228 237 293 270 313 318 199 241 354 356 318
71 51 31 28 13 11 6 354 347 355 3 3 0 357 351 345 343 337 330 328 341 336 333 333 334 327 310 233 229 228 248 252 269 227 202 254 324 317 289 214 15 333 290
75 63 26 6 351 350 345 330 346 3 358 350 350 343 341 339 332 334 336 335 332 339 336 336 331 333 315 289 194 215 218 251 288 278 272 232 214 226 289 303 321 324 353
63 19 8 0 354 353 351 359 359 350 349 340 339 343 338 339 336 342 337 344 336 337 348 343 333 324 322 322 305 290 235 220 264 281 281 264 300 323 271 285 299 331 337
70 328 336 347 345 342 354 346 355 342 338 335 339 346 337 333 330 336 336 328 337 338 343 336 332 340 336 327 304 276 241 248 221 259 296 333 305 309 285 281 316 307 338
234 261 309 334 6 359 348 342 344 339 335 336 334 335 334 336 331 338 333 327 326 328 329 333 325 343 332 344 350 349 306 278 288 194 189 192 263 274 289 306 331 320 306
231 254 342 43 326 353 338 346 340 327 326 336 325 333 340 338 342 343 337 332 326 325 326 338 348 7 2 6 356 348 303 278 175 145 188 236 273 257 254 244 206 285 320
266 306 100 7 12 333 347 338 331 329 330 327 341 349 353 351 344 342 344 337 332 338 345 356 22 22 32 29 20 26 23 53 77 159 214 260 245 246 209 193 224 273 314
71 66 55 342 356 352 346 340 344 342 346 356 2 1 360 350 344 344 342 344 332 349 2 17 32 25 33 36 28 17 25 43 25 333 234 240 239 261 175 207 262 305 295
65 52 8 0 356 349 352 0 352 353 358 6 8 9 349 342 343 346 358 346 357 28 36 34 40 28 19 17 18 4 7 24 354 350 349 337 303 343 289 299 292 301 302
66 14 3 352 348 348 360 359 360 1 2 12 7 359 1 350 359 351 14 33 1 17 18 26 33 14 1 8 352 334 331 338 336 343 338 359 342 322 313 285 285 288 284
35 11 2 0 2 7 359 357 360 6 16 8 357 6 10 4 5 1 7 9 15 10 13 19 5 2 0 353 340 327 323 314 321 333 342 314 308 304 307 290 281 290 266
19 18 11 5 10 2 1 1 5 27 15 356 7 19 357 1 355 5 5 8 20 26 7 10 2 12 15 1 343 336 354 350 354 28 336 323 357 343 331 331 338 290 290
21 16 12 7 7 8 10 14 16 14 6 11 23 7 3 355 353 357 6 21 19 16 12 23 13 19 8 359 27 359 36 24 15 360 354 336 349 15 354 351 34 43 16
18 16 10 10 4 5 6 6 4 4 15 16 19 5 11 357 3 14 27 23 22 25 38 27 17 26 11 2 11 5 21 28 19 11 21 19 5 347 38 68 59 61 43
26 16 12 1 2 5 8 4 8 16 16 17 14 8 14 9 8 22 18 18 11 17 21 22 20 19 20 3 3 11 40 33 33 30 24 39 53 45 67 72 67 51 43
29 21 10 0 12 23 11 16 21 19 22 10 13 16 14 19 22 20 11 3 6 15 20 15 10 13 29 15 18 27 37 65 54 48 46 52 57 16 354 58 67 68 56
40 20 3 9 14 20 25 36 29 23 23 10 7 12 12 14 24 17 9 2 13 20 25 37 27 24 29 21 9 36 68 78 60 53 53 46 33 7 0 45 53 62 36
48 23 26 28 27 38 29 33 25 13 344 338 354 6 13 14 17 22 6 13 37 43 41 50 42 52 32 37 17 5 65 67 82 65 65 61 5 11 25 339 39 19 324
48 25 35 31 33 27 15 15 16 356 350 352 356 9 11 18 27 32 28 37 37 49 33 37 52 38 33 36 44 32 36 29 66 60 58 67 345 324 320 286 342 281 283
47 36 46 39 49 32 8 3 355 355 355 17 41 31 42 45 51 58 49 44 42 30 25 24 24 23 10 13 16 9 22 34 37 24 4 305 287 272 254 239 289 269 322
50 48 38 29 38 25 16 7 357 12 36 56 63 63 59 52 55 59 36 25 19 13 21 15 16 7 11 9 7 16 21 45 76 32 63 31 292 241 284 316 340 1 351
60 32 18 23 31 19 18 18 29 37 63 66 71 66 55 40 40 40 18 16 43 3 358 5 11 14 27 14 339 351 18 19 31 358 43 37 26 25 21 19 18 12 0
80 27 2 13 24 26 38 32 40 53 60 68 63 44 4 360 53 23 65 62 31 56 56 42 360 73 48 351 349 35 27 13 355 48 37 26 22 20 13 10 8 16 9